{"data":{"norad_id":65557,"epoch":"2026-05-25T00:22:38.733312Z","epoch_age_seconds":66900,"freshness":"FRESH","line1":"1 65557U 25201H   26145.01572608  .00001179  00000+0  17176-3 0  9997","line2":"2 65557  49.9778 142.9712 0002073 234.3835 125.6910 14.82768213 38412","mean_motion":14.82768213,"eccentricity":0.0002073,"inclination_deg":49.9778,"raan_deg":142.9712,"arg_perigee_deg":234.3835,"mean_anomaly_deg":125.691,"bstar":0.00017176,"rev_number":3841,"period_min":97.115650806037,"perigee_km":619.148990431,"apogee_km":622.05066672013,"semimajor_km":6998.7368285756,"source":"CELESTRAK","updated_at":"2026-05-25T13:38:05.516025Z"}}